Time,TemperatureF,DewpointF,PressureIn,WindDirection,WindDirectionDegrees,WindSpeedMPH,WindSpeedGustMPH,Humidity,HourlyPrecipIn,Conditions,Clouds,dailyrainin,SoftwareType,DateUTC
2013-01-24 00:00:00,41.0,-5.0,-100.00,SSW,212,2.0,6.0,14,-99.99,,,-99.99,,2013-01-24 07:00:00,
2013-01-24 00:53:00,41.0,-5.0,-100.00,SSW,212,2.0,6.0,14,-99.99,,,-99.99,,2013-01-24 07:53:00,
2013-01-24 01:00:00,37.0,-2.0,-100.00,South,179,1.0,2.0,19,-99.99,,,0.00,,2013-01-24 08:00:00,
2013-01-24 01:53:00,37.0,-2.0,-100.00,South,179,1.0,2.0,19,-99.99,,,0.00,,2013-01-24 08:53:00,
2013-01-24 02:00:00,35.0,-1.0,-100.00,South,174,1.0,2.0,21,-99.99,,,-99.99,,2013-01-24 09:00:00,
2013-01-24 02:53:00,35.0,-1.0,-100.00,South,174,1.0,2.0,21,-99.99,,,-99.99,,2013-01-24 09:53:00,
2013-01-24 03:00:00,39.0,2.0,-100.00,ESE,121,1.0,3.0,20,-99.99,,,-99.99,,2013-01-24 10:00:00,
2013-01-24 03:53:00,39.0,2.0,-100.00,ESE,121,1.0,3.0,20,-99.99,,,-99.99,,2013-01-24 10:53:00,
2013-01-24 04:00:00,39.0,1.0,-100.00,SE,129,1.0,9.0,20,-99.99,,,0.00,,2013-01-24 11:00:00,
2013-01-24 04:53:00,39.0,1.0,-100.00,SE,129,1.0,9.0,20,-99.99,,,0.00,,2013-01-24 11:53:00,
2013-01-24 05:00:00,41.0,8.0,-100.00,SSW,206,2.0,6.0,25,-99.99,,,-99.99,,2013-01-24 12:00:00,
2013-01-24 05:53:00,41.0,8.0,-100.00,SSW,206,2.0,6.0,25,-99.99,,,-99.99,,2013-01-24 12:53:00,
2013-01-24 06:00:00,41.0,10.0,-100.00,SE,130,1.0,5.0,28,-99.99,,,-99.99,,2013-01-24 13:00:00,
2013-01-24 06:53:00,41.0,10.0,-100.00,SE,130,1.0,5.0,28,-99.99,,,-99.99,,2013-01-24 13:53:00,
2013-01-24 07:00:00,39.0,7.0,-100.00,WSW,246,2.0,7.0,26,-99.99,,,0.00,,2013-01-24 14:00:00,
2013-01-24 07:54:00,39.0,7.0,-100.00,WSW,246,2.0,7.0,26,-99.99,,,0.00,,2013-01-24 14:54:00,
2013-01-24 08:00:00,38.0,7.0,-100.00,SSE,168,2.0,6.0,27,-99.99,,,-99.99,,2013-01-24 15:00:00,
2013-01-24 08:53:00,38.0,7.0,-100.00,SSE,168,2.0,6.0,27,-99.99,,,-99.99,,2013-01-24 15:53:00,
2013-01-24 09:00:00,38.0,11.0,-100.00,SSE,162,3.0,8.0,32,-99.99,,,-99.99,,2013-01-24 16:00:00,
2013-01-24 10:00:00,39.0,14.0,-100.00,East,85,2.0,8.0,36,-99.99,,,0.00,,2013-01-24 17:00:00,
2013-01-24 10:52:00,39.0,14.0,-100.00,East,85,2.0,8.0,36,-99.99,,,0.00,,2013-01-24 17:52:00,
2013-01-24 11:00:00,40.0,17.0,-100.00,ESE,106,3.0,10.0,39,-99.99,,,-99.99,,2013-01-24 18:00:00,
2013-01-24 11:53:00,40.0,17.0,-100.00,ESE,106,3.0,10.0,39,-99.99,,,-99.99,,2013-01-24 18:53:00,
2013-01-24 12:00:00,39.0,18.0,-100.00,NNE,29,2.0,7.0,43,-99.99,,,-99.99,,2013-01-24 19:00:00,
2013-01-24 12:52:00,39.0,18.0,-100.00,NNE,29,2.0,7.0,43,-99.99,,,-99.99,,2013-01-24 19:52:00,
2013-01-24 13:00:00,38.0,19.0,-100.00,NNE,33,2.0,7.0,47,-99.99,,,-99.99,,2013-01-24 20:00:00,
2013-01-24 13:52:00,38.0,19.0,-100.00,NNE,33,2.0,7.0,47,-99.99,,,-99.99,,2013-01-24 20:52:00,
2013-01-24 14:00:00,37.0,20.0,-100.00,NW,319,2.0,9.0,50,-99.99,,,-99.99,,2013-01-24 21:00:00,
2013-01-24 14:53:00,37.0,20.0,-100.00,NW,319,2.0,9.0,50,-99.99,,,-99.99,,2013-01-24 21:53:00,
2013-01-24 15:00:00,37.0,21.0,-100.00,NW,322,2.0,6.0,52,-99.99,,,-99.99,,2013-01-24 22:00:00,
2013-01-24 15:53:00,37.0,21.0,-100.00,NW,322,2.0,6.0,52,-99.99,,,-99.99,,2013-01-24 22:53:00,
2013-01-24 16:00:00,35.0,20.0,-100.00,NNW,339,1.0,5.0,55,-99.99,,,0.00,,2013-01-24 23:00:00,
2013-01-24 16:52:00,35.0,20.0,-100.00,NNW,339,1.0,5.0,55,-99.99,,,0.00,,2013-01-24 23:52:00,
2013-01-24 17:00:00,33.0,20.0,-100.00,North,360,1.0,5.0,60,-99.99,,,-99.99,,2013-01-25 00:00:00,
2013-01-24 17:52:00,33.0,20.0,-100.00,North,360,1.0,5.0,60,-99.99,,,-99.99,,2013-01-25 00:52:00,
2013-01-24 18:00:00,27.0,18.0,-100.00,NE,56,0.0,4.0,66,-99.99,,,-99.99,,2013-01-25 01:00:00,
2013-01-24 18:52:00,27.0,18.0,-100.00,NE,56,0.0,4.0,66,-99.99,,,-99.99,,2013-01-25 01:52:00,
2013-01-24 19:00:00,27.0,18.0,-100.00,ESE,113,0.0,1.0,71,-99.99,,,-99.99,,2013-01-25 02:00:00,
2013-01-24 19:53:00,27.0,18.0,-100.00,ESE,113,0.0,1.0,71,-99.99,,,-99.99,,2013-01-25 02:53:00,
2013-01-24 20:00:00,29.0,21.0,-100.00,SSE,154,0.0,3.0,72,-99.99,,,-99.99,,2013-01-25 03:00:00,
2013-01-24 20:52:00,29.0,21.0,-100.00,SSE,154,0.0,3.0,72,-99.99,,,-99.99,,2013-01-25 03:52:00,
2013-01-24 21:00:00,29.0,19.0,-100.00,NW,321,1.0,7.0,65,-99.99,,,-99.99,,2013-01-25 04:00:00,
2013-01-24 21:52:00,29.0,19.0,-100.00,NW,321,1.0,7.0,65,-99.99,,,-99.99,,2013-01-25 04:52:00,
2013-01-24 22:00:00,29.0,18.0,-100.00,NNW,333,1.0,4.0,64,-99.99,,,0.00,,2013-01-25 05:00:00,
2013-01-24 22:52:00,29.0,18.0,-100.00,NNW,333,1.0,4.0,64,-99.99,,,0.00,,2013-01-25 05:52:00,
2013-01-24 23:00:00,29.0,17.0,-100.00,NNW,336,1.0,4.0,62,-99.99,,,-99.99,,2013-01-25 06:00:00,
2013-01-24 23:52:00,29.0,17.0,-100.00,NNW,336,1.0,4.0,62,-99.99,,,-99.99,,2013-01-25 06:52:00,